When you browse on this site, cookies collect data to enhance your experience and personalize the content and advertising you see.
Visit our Privacy Policy to learn more. By continuing to use the site, you agree to this use of cookies and data.

Hourly Weather Wangkui

Today, 9 July, Thursday

Time Temperature Precipitation Wind Pressure Humidity
00:00 +19°C° 0 mm 1 mps 737 mmHg 69%
01:00 +19°C° 0 mm 1 mps 737 mmHg 70%
02:00 +18°C° 0 mm 1 mps 737 mmHg 71%
03:00 +18°C° 0 mm 1 mps 738 mmHg 73%
04:00 +18°C° 0 mm 1 mps 738 mmHg 75%
05:00 +18°C° 0 mm 1 mps 738 mmHg 77%
06:00 +20°C° 0 mm 1 mps 738 mmHg 73%
07:00 +21°C° 0 mm 2 mps 738 mmHg 69%
08:00 +24°C° 0 mm 2 mps 739 mmHg 64%
09:00 +25°C° 0 mm 2 mps 739 mmHg 61%
10:00 +26°C° 0 mm 2 mps 739 mmHg 57%
11:00 +28°C° 0 mm 2 mps 739 mmHg 54%
12:00 +29°C° 0 mm 1 mps 738 mmHg 51%
13:00 +29°C° 0 mm 1 mps 738 mmHg 49%
14:00 +30°C° 0 mm 1 mps 738 mmHg 47%
15:00 +30°C° 0 mm 1 mps 738 mmHg 48%
16:00 +30°C° 0 mm 1 mps 738 mmHg 50%
17:00 +30°C° 0 mm 1 mps 738 mmHg 52%
18:00 +28°C° 0 mm 1 mps 739 mmHg 57%
19:00 +26°C° 0 mm 1 mps 739 mmHg 62%
20:00 +24°C° 0 mm 2 mps 739 mmHg 67%
21:00 +23°C° 0 mm 2 mps 739 mmHg 69%
22:00 +21°C° 0 mm 2 mps 740 mmHg 70%
23:00 +21°C° 0 mm 2 mps 740 mmHg 72%

Tomorrow, 10 July, Friday

Time Temperature Precipitation Wind Pressure Humidity
00:00 +20°C° 0 mm 2 mps 740 mmHg 74%
01:00 +20°C° 0 mm 2 mps 740 mmHg 76%
02:00 +20°C° 0 mm 1 mps 740 mmHg 78%
03:00 +20°C° 0 mm 1 mps 741 mmHg 79%
04:00 +20°C° 0 mm 1 mps 741 mmHg 80%
05:00 +20°C° 0 mm 1 mps 741 mmHg 81%
06:00 +22°C° 0 mm 1 mps 741 mmHg 77%
07:00 +24°C° 0 mm 1 mps 742 mmHg 72%
08:00 +25°C° 0 mm 2 mps 742 mmHg 68%
09:00 +27°C° 0 mm 2 mps 742 mmHg 64%
10:00 +28°C° 0 mm 2 mps 742 mmHg 59%
11:00 +30°C° 0 mm 2 mps 742 mmHg 55%
12:00 +30°C° 0 mm 2 mps 742 mmHg 53%
13:00 +31°C° 0 mm 2 mps 741 mmHg 52%
14:00 +31°C° 0 mm 2 mps 741 mmHg 50%
15:00 +31°C° 0 mm 2 mps 741 mmHg 53%
16:00 +31°C° 0 mm 2 mps 741 mmHg 55%
17:00 +30°C° 0 mm 2 mps 741 mmHg 58%
18:00 +28°C° 0.1 mm 2 mps 741 mmHg 65%
19:00 +26°C° 0.1 mm 2 mps 741 mmHg 73%
20:00 +24°C° 0.1 mm 2 mps 741 mmHg 80%
21:00 +22°C° 0 mm 3 mps 741 mmHg 83%
22:00 +21°C° 0 mm 3 mps 741 mmHg 86%
23:00 +20°C° 0 mm 3 mps 741 mmHg 88%

Day after tomorrow, 11 July, Saturday

Time Temperature Precipitation Wind Pressure Humidity
00:00 +20°C° 0 mm 3 mps 741 mmHg 90%
01:00 +19°C° 0 mm 3 mps 741 mmHg 91%
02:00 +19°C° 0 mm 3 mps 742 mmHg 92%
03:00 +19°C° 0 mm 3 mps 742 mmHg 92%
04:00 +19°C° 0 mm 3 mps 742 mmHg 92%
05:00 +19°C° 0 mm 3 mps 742 mmHg 92%
06:00 +20°C° 0 mm 3 mps 742 mmHg 88%
07:00 +21°C° 0 mm 3 mps 742 mmHg 83%
08:00 +23°C° 0 mm 4 mps 742 mmHg 79%
09:00 +25°C° 0 mm 4 mps 742 mmHg 73%
10:00 +27°C° 0 mm 4 mps 742 mmHg 68%
11:00 +28°C° 0 mm 4 mps 742 mmHg 62%
12:00 +28°C° 0 mm 3 mps 742 mmHg 60%
13:00 +29°C° 0 mm 3 mps 742 mmHg 58%
14:00 +29°C° 0 mm 3 mps 741 mmHg 56%
15:00 +29°C° 0 mm 3 mps 742 mmHg 58%
16:00 +29°C° 0 mm 2 mps 742 mmHg 61%
17:00 +28°C° 0 mm 2 mps 742 mmHg 63%
18:00 +27°C° 0 mm 2 mps 742 mmHg 67%
19:00 +25°C° 0 mm 2 mps 742 mmHg 72%
20:00 +23°C° 0 mm 2 mps 742 mmHg 76%
21:00 +23°C° 0 mm 2 mps 743 mmHg 78%
22:00 +21°C° 0 mm 2 mps 743 mmHg 81%
23:00 +20°C° 0 mm 2 mps 743 mmHg 83%

12 July, Sunday

Time Temperature Precipitation Wind Pressure Humidity
00:00 +20°C° 0 mm 1 mps 743 mmHg 84%
01:00 +20°C° 0 mm 1 mps 743 mmHg 86%
02:00 +19°C° 0 mm 1 mps 743 mmHg 87%
03:00 +19°C° 0 mm 1 mps 743 mmHg 87%
04:00 +18°C° 0 mm 2 mps 743 mmHg 87%
05:00 +18°C° 0 mm 2 mps 743 mmHg 87%
06:00 +20°C° 0 mm 2 mps 743 mmHg 81%
07:00 +23°C° 0 mm 2 mps 744 mmHg 75%
08:00 +25°C° 0 mm 2 mps 744 mmHg 69%
09:00 +26°C° 0 mm 3 mps 743 mmHg 65%
10:00 +27°C° 0 mm 3 mps 743 mmHg 62%
11:00 +29°C° 0 mm 3 mps 743 mmHg 58%
12:00 +29°C° 0 mm 3 mps 743 mmHg 57%
13:00 +30°C° 0 mm 3 mps 742 mmHg 56%
14:00 +30°C° 0 mm 2 mps 742 mmHg 54%
15:00 +30°C° 0 mm 2 mps 742 mmHg 55%
16:00 +30°C° 0 mm 1 mps 742 mmHg 57%
17:00 +30°C° 0 mm 1 mps 742 mmHg 58%
18:00 +28°C° 0 mm 1 mps 742 mmHg 63%
19:00 +27°C° 0 mm 1 mps 742 mmHg 69%
20:00 +23°C° 0 mm 0 mps 742 mmHg 75%
21:00 +24°C° 0 mm 1 mps 742 mmHg 78%
22:00 +24°C° 0 mm 1 mps 742 mmHg 81%
23:00 +23°C° 0 mm 1 mps 742 mmHg 83%

13 July, Monday

Time Temperature Precipitation Wind Pressure Humidity
00:00 +23°C° 0 mm 1 mps 742 mmHg 85%
01:00 +23°C° 0 mm 1 mps 742 mmHg 87%
02:00 +22°C° 0 mm 1 mps 742 mmHg 89%
03:00 +22°C° 0 mm 1 mps 742 mmHg 89%
04:00 +20°C° 0 mm 0 mps 742 mmHg 88%
05:00 +21°C° 0 mm 0 mps 742 mmHg 88%
06:00 +22°C° 0 mm 0 mps 742 mmHg 82%
07:00 +24°C° 0 mm 0 mps 742 mmHg 77%
08:00 +26°C° 0 mm 0 mps 742 mmHg 71%
09:00 +29°C° 0.2 mm 1 mps 742 mmHg 67%
10:00 +30°C° 0.2 mm 1 mps 742 mmHg 64%
11:00 +31°C° 0.2 mm 2 mps 742 mmHg 60%
12:00 +32°C° 0.7 mm 2 mps 741 mmHg 58%
13:00 +32°C° 0.7 mm 1 mps 741 mmHg 55%
14:00 +33°C° 0.7 mm 1 mps 741 mmHg 53%
15:00 +32°C° 0 mm 1 mps 740 mmHg 56%
16:00 +32°C° 0 mm 1 mps 740 mmHg 59%
17:00 +32°C° 0 mm 1 mps 740 mmHg 62%
18:00 +30°C° 0.1 mm 1 mps 740 mmHg 65%
19:00 +29°C° 0.1 mm 1 mps 740 mmHg 68%
20:00 +27°C° 0.1 mm 1 mps 740 mmHg 71%
21:00 +26°C° 0.2 mm 1 mps 740 mmHg 74%
22:00 +25°C° 0.2 mm 1 mps 740 mmHg 77%
23:00 +25°C° 0.2 mm 1 mps 739 mmHg 81%

14 July, Tuesday

Time Temperature Precipitation Wind Pressure Humidity
00:00 +24°C° 0.1 mm 1 mps 739 mmHg 84%
01:00 +24°C° 0.1 mm 2 mps 739 mmHg 87%
02:00 +23°C° 0.1 mm 2 mps 739 mmHg 90%
03:00 +23°C° 0.4 mm 2 mps 739 mmHg 91%
04:00 +23°C° 0.4 mm 1 mps 739 mmHg 93%
05:00 +23°C° 0.4 mm 1 mps 739 mmHg 94%
06:00 +24°C° 0.5 mm 1 mps 740 mmHg 90%
07:00 +25°C° 0.5 mm 2 mps 740 mmHg 85%
08:00 +26°C° 0.5 mm 2 mps 740 mmHg 80%
09:00 +27°C° 0 mm 2 mps 740 mmHg 76%
10:00 +28°C° 0 mm 2 mps 739 mmHg 72%
11:00 +29°C° 0 mm 2 mps 739 mmHg 68%
12:00 +30°C° 0 mm 2 mps 739 mmHg 68%
13:00 +30°C° 0 mm 2 mps 738 mmHg 68%
14:00 +30°C° 0 mm 2 mps 738 mmHg 67%
15:00 +30°C° 0.6 mm 2 mps 738 mmHg 69%
16:00 +30°C° 0.6 mm 2 mps 738 mmHg 71%
17:00 +29°C° 0.6 mm 2 mps 737 mmHg 73%
18:00 +28°C° 0.5 mm 2 mps 738 mmHg 77%
19:00 +27°C° 0.5 mm 2 mps 738 mmHg 81%
20:00 +25°C° 0.5 mm 2 mps 738 mmHg 85%
21:00 +24°C° 0 mm 2 mps 738 mmHg 86%
22:00 +23°C° 0 mm 2 mps 738 mmHg 87%
23:00 +21°C° 0 mm 3 mps 738 mmHg 88%
Show more